BAW749 VGHS-OBBI

Flight info

Callsign BAW749
Flight time 5h 27m
Altitude 32000
Route IKOGU2 IKOGU A462 CEA A791 BPL L639 RASKI L301 VAXIM/N0499F340 L301 RAGMA N571 MENSA DCT EGTAG P699 ORMID M556 ORDIG ORDIG1
Aircraft B77W/H-SDE1E2E3FGHIJ2J3J4J5M1RWXY/LB1D1

Departure

Time 2026-04-23 08:15
Airport Hazrat Shahjalal International Airport (VGHS)

Arrival

Time 2026-04-23 13:42
Airport Bahrain International Airport (OBBI)
Time Latitude Longitude Altitude Speed Heading
2026-04-23 07:19 23.84784 90.40378 41 ft 0 kts 54°
2026-04-23 08:01 23.84780 90.40371 41 ft 2 kts 55°
2026-04-23 08:01 23.84771 90.40356 40 ft 2 kts 60°
2026-04-23 08:01 23.84764 90.40340 38 ft 2 kts 69°
2026-04-23 08:02 23.84759 90.40322 41 ft 2 kts 84°
2026-04-23 08:02 23.84759 90.40304 40 ft 2 kts 109°
2026-04-23 08:02 23.84767 90.40289 38 ft 2 kts 135°
2026-04-23 08:02 23.84775 90.40281 38 ft 1 kts 141°
2026-04-23 08:03 23.84776 90.40280 38 ft 0 kts 141°
2026-04-23 08:06 23.84774 90.40282 41 ft 2 kts 141°
2026-04-23 08:06 23.84739 90.40310 41 ft 7 kts 145°
2026-04-23 08:06 23.84699 90.40312 60 ft 6 kts 213°
2026-04-23 08:07 23.84670 90.40280 41 ft 6 kts 231°
2026-04-23 08:07 23.84646 90.40243 41 ft 6 kts 238°
2026-04-23 08:07 23.84655 90.40199 41 ft 7 kts 304°
2026-04-23 08:07 23.84694 90.40160 41 ft 14 kts 321°
2026-04-23 08:08 23.84790 90.40082 41 ft 14 kts 324°
2026-04-23 08:08 23.84870 90.40019 41 ft 14 kts 324°
2026-04-23 08:08 23.84950 90.39955 41 ft 14 kts 323°
2026-04-23 08:08 23.85030 90.39892 41 ft 14 kts 324°
2026-04-23 08:09 23.85111 90.39828 41 ft 14 kts 324°
2026-04-23 08:09 23.85191 90.39765 41 ft 14 kts 324°
2026-04-23 08:09 23.85270 90.39703 41 ft 14 kts 324°
2026-04-23 08:09 23.85350 90.39639 41 ft 14 kts 323°
2026-04-23 08:10 23.85429 90.39574 41 ft 14 kts 323°
2026-04-23 08:10 23.85510 90.39510 41 ft 14 kts 324°
2026-04-23 08:10 23.85669 90.39384 41 ft 14 kts 324°
2026-04-23 08:11 23.85737 90.39333 41 ft 4 kts 322°
2026-04-23 08:11 23.85737 90.39332 41 ft 1 kts 322°
2026-04-23 08:11 23.85768 90.39286 41 ft 6 kts 276°
2026-04-23 08:11 23.85740 90.39232 41 ft 17 kts 235°
2026-04-23 08:12 23.85671 90.39127 41 ft 17 kts 233°
2026-04-23 08:12 23.85600 90.39024 40 ft 17 kts 234°
2026-04-23 08:12 23.85585 90.39000 40 ft 0 kts 235°
2026-04-23 08:12 23.85584 90.39000 40 ft 0 kts 235°
2026-04-23 08:13 23.85553 90.38951 40 ft 9 kts 233°
2026-04-23 08:13 23.85501 90.38908 40 ft 10 kts 207°
2026-04-23 08:13 23.85451 90.38899 40 ft 5 kts 165°
2026-04-23 08:13 23.85435 90.38908 40 ft 0 kts 146°
2026-04-23 08:14 23.85424 90.38917 40 ft 11 kts 146°
2026-04-23 08:14 23.85214 90.39080 40 ft 75 kts 144°
2026-04-23 08:14 23.84569 90.39595 42 ft 154 kts 143°
2026-04-23 08:14 23.83551 90.40410 283 ft 198 kts 144°
2026-04-23 08:15 23.82486 90.41273 1347 ft 186 kts 143°
2026-04-23 08:15 23.81420 90.42143 1885 ft 199 kts 144°
2026-04-23 08:15 23.80270 90.42989 2453 ft 201 kts 156°
2026-04-23 08:15 23.78861 90.43133 2800 ft 213 kts 198°
2026-04-23 08:16 23.77590 90.42369 3484 ft 208 kts 220°
2026-04-23 08:16 23.76608 90.41194 4001 ft 218 kts 234°
2026-04-23 08:16 23.75862 90.39632 4025 ft 250 kts 256°
2026-04-23 08:16 23.75707 90.37680 4234 ft 264 kts 267°
2026-04-23 08:17 23.75640 90.35676 4260 ft 263 kts 266°
2026-04-23 08:17 23.75513 90.33688 4410 ft 263 kts 264°
2026-04-23 08:17 23.75342 90.31681 4454 ft 268 kts 263°
2026-04-23 08:17 23.75113 90.29669 4487 ft 267 kts 257°
2026-04-23 08:18 23.74364 90.27812 4258 ft 269 kts 235°
2026-04-23 08:18 23.73225 90.26284 4573 ft 258 kts 227°
2026-04-23 08:18 23.71932 90.24940 5448 ft 252 kts 224°
2026-04-23 08:18 23.70774 90.23377 5369 ft 275 kts 241°
2026-04-23 08:19 23.69889 90.21567 5396 ft 276 kts 243°
2026-04-23 08:19 23.68990 90.19711 5393 ft 275 kts 242°
2026-04-23 08:19 23.68044 90.17895 5867 ft 279 kts 240°
2026-04-23 08:19 23.67040 90.16113 6845 ft 272 kts 239°
2026-04-23 08:20 23.66021 90.14385 7774 ft 270 kts 239°
2026-04-23 08:20 23.64968 90.12650 8398 ft 280 kts 239°
2026-04-23 08:20 23.63870 90.10868 8917 ft 288 kts 238°
2026-04-23 08:20 23.62741 90.09052 9690 ft 289 kts 240°
2026-04-23 08:21 23.61629 90.07232 10539 ft 286 kts 239°
2026-04-23 08:21 23.60524 90.05438 11327 ft 288 kts 239°
2026-04-23 08:21 23.59387 90.03553 11654 ft 309 kts 240°
2026-04-23 08:21 23.58217 90.01475 11844 ft 334 kts 242°
2026-04-23 08:22 23.56981 89.99215 12029 ft 359 kts 241°
2026-04-23 08:22 23.55657 89.96793 12284 ft 380 kts 241°
2026-04-23 08:22 23.54277 89.94282 12819 ft 392 kts 240°
2026-04-23 08:22 23.52857 89.91714 13455 ft 400 kts 240°
2026-04-23 08:23 23.51402 89.89094 14089 ft 406 kts 240°
2026-04-23 08:23 23.49933 89.86453 14773 ft 410 kts 240°
2026-04-23 08:23 23.48449 89.83790 15464 ft 414 kts 240°
2026-04-23 08:23 23.46947 89.81094 16122 ft 418 kts 239°
2026-04-23 08:24 23.45429 89.78372 16748 ft 424 kts 239°
2026-04-23 08:24 23.43887 89.75606 17374 ft 429 kts 239°
2026-04-23 08:24 23.42330 89.72815 18017 ft 434 kts 239°
2026-04-23 08:24 23.40759 89.69999 18591 ft 438 kts 239°
2026-04-23 08:25 23.39172 89.67157 19206 ft 440 kts 239°
2026-04-23 08:25 23.37581 89.64314 19866 ft 442 kts 239°
2026-04-23 08:25 23.35935 89.61476 20493 ft 444 kts 238°
2026-04-23 08:25 23.34244 89.58649 21133 ft 447 kts 238°
2026-04-23 08:26 23.32536 89.55825 21730 ft 449 kts 238°
2026-04-23 08:26 23.30813 89.52980 22355 ft 452 kts 238°
2026-04-23 08:26 23.29079 89.50108 22965 ft 454 kts 238°
2026-04-23 08:26 23.27369 89.47268 23527 ft 456 kts 238°
2026-04-23 08:27 23.25634 89.44381 24065 ft 457 kts 238°
2026-04-23 08:27 23.23878 89.41455 24624 ft 456 kts 239°
2026-04-23 08:27 23.22145 89.38567 25174 ft 457 kts 239°
2026-04-23 08:27 23.20431 89.35711 25695 ft 457 kts 239°
2026-04-23 08:28 23.18689 89.32812 26186 ft 458 kts 239°
2026-04-23 08:28 23.16947 89.29912 26682 ft 459 kts 239°
2026-04-23 08:28 23.15194 89.26997 27163 ft 461 kts 239°
2026-04-23 08:28 23.13440 89.24082 27623 ft 462 kts 239°
2026-04-23 08:29 23.11684 89.21164 28087 ft 462 kts 239°
2026-04-23 08:29 23.09925 89.18237 28556 ft 462 kts 239°
2026-04-23 08:29 23.08169 89.15315 29012 ft 463 kts 239°
2026-04-23 08:29 23.06405 89.12390 29346 ft 465 kts 239°
2026-04-23 08:30 23.04629 89.09454 29778 ft 465 kts 239°
2026-04-23 08:30 23.02859 89.06530 30282 ft 460 kts 239°
2026-04-23 08:30 23.01117 89.03654 31019 ft 450 kts 239°
2026-04-23 08:30 22.99423 89.00855 31865 ft 438 kts 240°
2026-04-23 08:31 22.97770 88.98123 32638 ft 428 kts 240°
2026-04-23 08:31 22.96149 88.95441 33253 ft 423 kts 240°
2026-04-23 08:31 22.94541 88.92780 33703 ft 420 kts 240°
2026-04-23 08:31 22.92941 88.90138 34003 ft 419 kts 240°
2026-04-23 08:32 22.91375 88.87466 34219 ft 419 kts 242°
2026-04-23 08:32 22.89871 88.84763 34466 ft 419 kts 242°
2026-04-23 08:32 22.88389 88.82052 34759 ft 417 kts 243°
2026-04-23 08:32 22.86914 88.79352 35055 ft 416 kts 242°
2026-04-23 08:33 22.85433 88.76655 35324 ft 415 kts 242°
2026-04-23 08:33 22.83954 88.73977 35569 ft 415 kts 242°
2026-04-23 08:33 22.80967 88.68592 35689 ft 419 kts 242°
2026-04-23 08:34 22.77966 88.63205 35717 ft 415 kts 242°
2026-04-23 08:34 22.75012 88.57905 35718 ft 412 kts 242°
2026-04-23 08:35 22.72054 88.52599 35721 ft 411 kts 242°
2026-04-23 08:35 22.69408 88.47157 35726 ft 407 kts 253°
2026-04-23 08:36 22.68173 88.41177 35727 ft 408 kts 262°
2026-04-23 08:36 22.68230 88.35009 35724 ft 413 kts 271°
2026-04-23 08:37 22.68694 88.28796 35726 ft 415 kts 272°
2026-04-23 08:37 22.69149 88.22562 35726 ft 416 kts 271°
2026-04-23 08:38 22.69577 88.16298 35723 ft 417 kts 271°
2026-04-23 08:38 22.69987 88.10041 35716 ft 416 kts 271°
2026-04-23 08:39 22.70390 88.03789 35718 ft 415 kts 271°
2026-04-23 08:39 22.70790 87.97555 35720 ft 414 kts 271°
2026-04-23 08:40 22.71186 87.91339 35720 ft 413 kts 271°
2026-04-23 08:40 22.71580 87.85130 35715 ft 413 kts 271°
2026-04-23 08:41 22.71971 87.78929 35713 ft 412 kts 271°
2026-04-23 08:41 22.72358 87.72737 35716 ft 412 kts 271°
2026-04-23 08:42 22.72744 87.66540 35713 ft 412 kts 271°
2026-04-23 08:42 22.73127 87.60344 35710 ft 413 kts 271°
2026-04-23 08:43 22.73444 87.55184 35705 ft 413 kts 271°
2026-04-23 08:43 22.73824 87.48978 35706 ft 413 kts 271°
2026-04-23 08:44 22.74202 87.42761 35701 ft 414 kts 271°
2026-04-23 08:44 22.74638 87.35522 35700 ft 414 kts 271°
2026-04-23 08:45 22.74951 87.30308 35703 ft 414 kts 271°
2026-04-23 08:45 22.75322 87.24071 35702 ft 414 kts 271°
2026-04-23 08:46 22.75691 87.17845 35700 ft 415 kts 270°
2026-04-23 08:46 22.76058 87.11611 35704 ft 415 kts 270°
2026-04-23 08:47 22.76419 87.05418 35702 ft 415 kts 270°
2026-04-23 08:47 22.76781 86.99187 35711 ft 415 kts 270°
2026-04-23 08:48 22.77140 86.92946 35714 ft 414 kts 270°
2026-04-23 08:48 22.77497 86.86722 35723 ft 414 kts 270°
2026-04-23 08:49 22.77851 86.80491 35721 ft 414 kts 270°
2026-04-23 08:49 22.78202 86.74262 35732 ft 414 kts 270°
2026-04-23 08:50 22.78552 86.68034 35738 ft 414 kts 270°
2026-04-23 08:50 22.78898 86.61804 35741 ft 414 kts 270°
2026-04-23 08:51 22.79243 86.55564 35741 ft 415 kts 270°
2026-04-23 08:51 22.79586 86.49326 35752 ft 415 kts 270°
2026-04-23 08:52 22.79925 86.43090 35736 ft 415 kts 270°
2026-04-23 08:52 22.80262 86.36853 35744 ft 414 kts 270°
2026-04-23 08:53 22.80598 86.30627 35722 ft 414 kts 270°
2026-04-23 08:53 22.80930 86.24394 35721 ft 414 kts 270°
2026-04-23 08:54 22.81258 86.18201 35719 ft 414 kts 270°
2026-04-23 08:54 22.81693 86.11969 35718 ft 415 kts 271°
2026-04-23 08:55 22.82240 86.05733 35724 ft 416 kts 271°
2026-04-23 08:55 22.82780 85.99496 35742 ft 416 kts 271°
2026-04-23 08:56 22.83302 85.93242 35763 ft 416 kts 271°
2026-04-23 08:56 22.83815 85.86987 35788 ft 417 kts 271°
2026-04-23 08:57 22.84324 85.80731 35810 ft 417 kts 271°
2026-04-23 08:57 22.84831 85.74468 35828 ft 417 kts 271°
2026-04-23 08:58 22.85337 85.68205 35833 ft 417 kts 271°
2026-04-23 08:58 22.85838 85.61954 35840 ft 414 kts 271°
2026-04-23 08:59 22.86337 85.55722 35856 ft 416 kts 271°
2026-04-23 08:59 22.86836 85.49460 35851 ft 417 kts 271°
2026-04-23 09:00 22.87329 85.43221 35849 ft 419 kts 271°
2026-04-23 09:00 22.87823 85.36931 35859 ft 419 kts 271°
2026-04-23 09:01 22.88317 85.30628 35861 ft 420 kts 271°
2026-04-23 09:01 22.88809 85.24316 35859 ft 420 kts 271°
2026-04-23 09:02 22.89299 85.18001 35862 ft 420 kts 271°
2026-04-23 09:02 22.89787 85.11683 35862 ft 420 kts 271°
2026-04-23 09:03 22.90272 85.05370 35867 ft 420 kts 271°
2026-04-23 09:03 22.90755 84.99061 35864 ft 419 kts 271°
2026-04-23 09:04 22.91236 84.92755 35869 ft 419 kts 271°
2026-04-23 09:04 22.91713 84.86449 35866 ft 420 kts 271°
2026-04-23 09:05 22.92189 84.80136 35871 ft 420 kts 271°
2026-04-23 09:05 22.92662 84.73823 35869 ft 420 kts 271°
2026-04-23 09:06 22.93131 84.67542 35876 ft 421 kts 271°
2026-04-23 09:06 22.93600 84.61214 35872 ft 421 kts 271°
2026-04-23 09:07 22.94068 84.54874 35866 ft 421 kts 271°
2026-04-23 09:07 22.94533 84.48537 35868 ft 422 kts 271°
2026-04-23 09:08 22.94995 84.42195 35874 ft 422 kts 271°
2026-04-23 09:08 22.95456 84.35843 35860 ft 423 kts 271°
2026-04-23 09:09 22.95915 84.29487 35879 ft 423 kts 271°
2026-04-23 09:09 22.96371 84.23135 35867 ft 423 kts 270°
2026-04-23 09:10 22.97052 84.13575 35873 ft 423 kts 270°
2026-04-23 09:11 22.97443 84.07201 35858 ft 423 kts 270°
2026-04-23 09:11 22.97775 84.00835 35864 ft 423 kts 269°
2026-04-23 09:12 22.98108 83.94462 35874 ft 423 kts 269°
2026-04-23 09:12 22.98446 83.88092 35866 ft 423 kts 269°
2026-04-23 09:13 22.98786 83.81720 35878 ft 423 kts 269°
2026-04-23 09:13 22.99121 83.75388 35870 ft 423 kts 269°
2026-04-23 09:14 22.99458 83.68967 35852 ft 423 kts 269°
2026-04-23 09:14 22.99790 83.62583 35851 ft 424 kts 269°
2026-04-23 09:15 23.00118 83.56249 35853 ft 424 kts 269°
2026-04-23 09:15 23.00446 83.49865 35851 ft 423 kts 269°
2026-04-23 09:16 23.00770 83.43491 35847 ft 423 kts 269°
2026-04-23 09:16 23.01092 83.37113 35843 ft 423 kts 269°
2026-04-23 09:17 23.01411 83.30757 35846 ft 422 kts 269°
2026-04-23 09:17 23.01727 83.24386 35840 ft 422 kts 269°
2026-04-23 09:18 23.02040 83.18031 35829 ft 422 kts 269°
2026-04-23 09:18 23.02351 83.11677 35822 ft 422 kts 269°
2026-04-23 09:19 23.02660 83.05325 35816 ft 422 kts 269°
2026-04-23 09:19 23.02965 82.98964 35810 ft 422 kts 269°
2026-04-23 09:20 23.03268 82.92608 35814 ft 422 kts 269°
2026-04-23 09:20 23.03569 82.86243 35801 ft 422 kts 269°
2026-04-23 09:21 23.03867 82.79878 35801 ft 423 kts 269°
2026-04-23 09:21 23.04164 82.73503 35796 ft 423 kts 269°
2026-04-23 09:22 23.04457 82.67128 35800 ft 423 kts 269°
2026-04-23 09:22 23.04749 82.60755 35796 ft 423 kts 269°
2026-04-23 09:23 23.05037 82.54394 35790 ft 423 kts 269°
2026-04-23 09:23 23.05323 82.48006 35784 ft 423 kts 269°
2026-04-23 09:24 23.05607 82.41631 35782 ft 423 kts 268°
2026-04-23 09:24 23.05888 82.35257 35788 ft 423 kts 268°
2026-04-23 09:25 23.06166 82.28877 35785 ft 423 kts 268°
2026-04-23 09:25 23.06443 82.22498 35789 ft 423 kts 268°
2026-04-23 09:26 23.06717 82.16123 35794 ft 423 kts 268°
2026-04-23 09:26 23.07086 82.09750 35794 ft 424 kts 269°
2026-04-23 09:27 23.07504 82.03362 35799 ft 424 kts 269°
2026-04-23 09:27 23.07912 81.96981 35802 ft 424 kts 269°
2026-04-23 09:28 23.08306 81.90637 35804 ft 424 kts 269°
2026-04-23 09:28 23.08699 81.84209 35807 ft 424 kts 269°
2026-04-23 09:29 23.09084 81.77859 35810 ft 424 kts 269°
2026-04-23 09:29 23.09469 81.71466 35815 ft 424 kts 269°
2026-04-23 09:30 23.09788 81.66142 35815 ft 424 kts 269°
2026-04-23 09:30 23.10233 81.58664 35817 ft 425 kts 269°
2026-04-23 09:31 23.10548 81.53341 35820 ft 425 kts 269°
2026-04-23 09:31 23.10924 81.46942 35823 ft 425 kts 269°
2026-04-23 09:32 23.11297 81.40539 35821 ft 425 kts 269°
2026-04-23 09:32 23.11667 81.34149 35826 ft 425 kts 269°
2026-04-23 09:33 23.12036 81.27730 35834 ft 425 kts 269°
2026-04-23 09:33 23.12402 81.21322 35830 ft 426 kts 269°
2026-04-23 09:34 23.12767 81.14915 35833 ft 424 kts 269°
2026-04-23 09:34 23.13126 81.08521 35827 ft 425 kts 269°
2026-04-23 09:35 23.13483 81.02102 35836 ft 426 kts 269°
2026-04-23 09:35 23.13840 80.95668 35830 ft 427 kts 269°
2026-04-23 09:36 23.14195 80.89238 35837 ft 427 kts 269°
2026-04-23 09:36 23.14548 80.82792 35838 ft 428 kts 269°
2026-04-23 09:37 23.14898 80.76330 35837 ft 429 kts 269°
2026-04-23 09:37 23.15251 80.69854 35833 ft 429 kts 269°
2026-04-23 09:38 23.15603 80.63376 35829 ft 430 kts 269°
2026-04-23 09:38 23.15953 80.56894 35833 ft 430 kts 269°
2026-04-23 09:39 23.16300 80.50409 35833 ft 430 kts 269°
2026-04-23 09:39 23.16645 80.43918 35833 ft 430 kts 269°
2026-04-23 09:40 23.16987 80.37417 35832 ft 431 kts 269°
2026-04-23 09:40 23.17327 80.30917 35834 ft 431 kts 269°
2026-04-23 09:41 23.17664 80.24411 35834 ft 432 kts 269°
2026-04-23 09:41 23.18000 80.17887 35828 ft 433 kts 269°
2026-04-23 09:42 23.18334 80.11352 35838 ft 434 kts 269°
2026-04-23 09:42 23.18664 80.04796 35834 ft 435 kts 269°
2026-04-23 09:43 23.18952 79.98276 35836 ft 435 kts 268°
2026-04-23 09:43 23.19231 79.91698 35833 ft 436 kts 268°
2026-04-23 09:44 23.19512 79.85097 35826 ft 437 kts 269°
2026-04-23 09:44 23.19794 79.78490 35825 ft 438 kts 269°
2026-04-23 09:45 23.20074 79.71862 35828 ft 439 kts 269°
2026-04-23 09:45 23.20351 79.65228 35825 ft 440 kts 269°
2026-04-23 09:46 23.20627 79.58573 35812 ft 441 kts 269°
2026-04-23 09:46 23.20837 79.51917 35822 ft 441 kts 268°
2026-04-23 09:47 23.20944 79.45249 35811 ft 441 kts 267°
2026-04-23 09:47 23.21049 79.38569 35807 ft 442 kts 267°
2026-04-23 09:48 23.21164 79.31879 35806 ft 443 kts 268°
2026-04-23 09:48 23.21283 79.25186 35809 ft 444 kts 268°
2026-04-23 09:49 23.21399 79.18481 35816 ft 444 kts 268°
2026-04-23 09:49 23.21513 79.11767 35813 ft 445 kts 268°
2026-04-23 09:50 23.21624 79.05040 35797 ft 445 kts 268°
2026-04-23 09:50 23.21732 78.98302 35808 ft 446 kts 268°
2026-04-23 09:51 23.21837 78.91559 35807 ft 446 kts 268°
2026-04-23 09:51 23.21940 78.84807 35793 ft 447 kts 268°
2026-04-23 09:52 23.22040 78.78040 35792 ft 448 kts 268°
2026-04-23 09:52 23.22166 78.71269 35794 ft 449 kts 269°
2026-04-23 09:53 23.22491 78.64490 35788 ft 450 kts 270°
2026-04-23 09:53 23.22858 78.57702 35789 ft 450 kts 270°
2026-04-23 09:54 23.23198 78.50949 35785 ft 450 kts 270°
2026-04-23 09:54 23.23522 78.44145 35787 ft 451 kts 269°
2026-04-23 09:55 23.23838 78.37337 35786 ft 451 kts 269°
2026-04-23 09:55 23.24151 78.30521 35781 ft 452 kts 269°
2026-04-23 09:56 23.24463 78.23676 35783 ft 453 kts 269°
2026-04-23 09:56 23.24774 78.16829 35781 ft 454 kts 270°
2026-04-23 09:57 23.25081 78.09979 35786 ft 455 kts 270°
2026-04-23 09:57 23.25386 78.03098 35788 ft 456 kts 270°
2026-04-23 09:58 23.25689 77.96204 35788 ft 457 kts 270°
2026-04-23 09:58 23.25990 77.89290 35790 ft 458 kts 270°
2026-04-23 09:59 23.26287 77.82388 35796 ft 458 kts 270°
2026-04-23 09:59 23.26583 77.75442 35801 ft 459 kts 270°
2026-04-23 10:00 23.26875 77.68542 35799 ft 460 kts 270°
2026-04-23 10:00 23.27165 77.61593 35804 ft 461 kts 270°
2026-04-23 10:01 23.27454 77.54611 35799 ft 462 kts 270°
2026-04-23 10:01 23.27739 77.47630 35805 ft 463 kts 270°
2026-04-23 10:02 23.28024 77.40611 35808 ft 464 kts 270°
2026-04-23 10:02 23.28268 77.33581 35810 ft 464 kts 267°
2026-04-23 10:03 23.27872 77.26584 35815 ft 464 kts 263°
2026-04-23 10:03 23.27337 77.19592 35812 ft 465 kts 263°
2026-04-23 10:04 23.26815 77.12585 35815 ft 465 kts 263°
2026-04-23 10:04 23.26309 77.05578 35823 ft 465 kts 263°
2026-04-23 10:05 23.25807 76.98568 35818 ft 466 kts 264°
2026-04-23 10:05 23.25301 76.91536 35822 ft 466 kts 264°
2026-04-23 10:06 23.24790 76.84495 35820 ft 467 kts 264°
2026-04-23 10:06 23.24275 76.77449 35827 ft 468 kts 264°
2026-04-23 10:07 23.23756 76.70391 35822 ft 468 kts 264°
2026-04-23 10:07 23.23234 76.63323 35823 ft 469 kts 264°
2026-04-23 10:08 23.22711 76.56304 35830 ft 469 kts 264°
2026-04-23 10:08 23.22177 76.49177 35835 ft 470 kts 264°
2026-04-23 10:09 23.21379 76.38599 35836 ft 471 kts 264°
2026-04-23 10:09 23.20840 76.31506 35840 ft 471 kts 264°
2026-04-23 10:10 23.20298 76.24412 35846 ft 471 kts 264°
2026-04-23 10:10 23.19752 76.17315 35861 ft 471 kts 264°
2026-04-23 10:11 23.19203 76.10212 35853 ft 472 kts 264°
2026-04-23 10:11 23.18651 76.03109 35867 ft 471 kts 264°
2026-04-23 10:12 23.18296 75.95999 35867 ft 472 kts 268°
2026-04-23 10:12 23.18229 75.88864 35879 ft 472 kts 268°
2026-04-23 10:13 23.18175 75.81717 35884 ft 473 kts 268°
2026-04-23 10:13 23.18100 75.74574 35881 ft 473 kts 268°
2026-04-23 10:14 23.18009 75.67423 35873 ft 473 kts 268°
2026-04-23 10:14 23.17913 75.60282 35879 ft 472 kts 268°
2026-04-23 10:15 23.17814 75.53154 35880 ft 471 kts 268°
2026-04-23 10:15 23.17713 75.46083 35877 ft 471 kts 268°
2026-04-23 10:16 23.17609 75.38980 35885 ft 470 kts 268°
2026-04-23 10:16 23.17501 75.31886 35885 ft 470 kts 268°
2026-04-23 10:17 23.17391 75.24788 35877 ft 469 kts 268°
2026-04-23 10:17 23.17277 75.17684 35877 ft 470 kts 268°
2026-04-23 10:18 23.17160 75.10588 35876 ft 470 kts 268°
2026-04-23 10:18 23.17040 75.03485 35876 ft 471 kts 268°
2026-04-23 10:19 23.16917 74.96370 35873 ft 471 kts 268°
2026-04-23 10:19 23.16810 74.90409 35868 ft 471 kts 268°
2026-04-23 10:20 23.16681 74.83286 35873 ft 472 kts 268°
2026-04-23 10:20 23.16549 74.76191 35869 ft 473 kts 268°
2026-04-23 10:21 23.16413 74.69042 35862 ft 474 kts 268°
2026-04-23 10:21 23.16272 74.61870 35856 ft 475 kts 268°
2026-04-23 10:22 23.16129 74.54691 35852 ft 475 kts 268°
2026-04-23 10:22 23.15983 74.47523 35844 ft 474 kts 268°
2026-04-23 10:23 23.15834 74.40378 35841 ft 473 kts 268°
2026-04-23 10:23 23.15679 74.33238 35840 ft 472 kts 268°
2026-04-23 10:24 23.15384 74.26120 35836 ft 472 kts 266°
2026-04-23 10:24 23.15020 74.19005 35835 ft 471 kts 266°
2026-04-23 10:25 23.14665 74.11904 35835 ft 470 kts 266°
2026-04-23 10:25 23.14322 74.04809 35817 ft 470 kts 266°
2026-04-23 10:26 23.13982 73.97716 35820 ft 470 kts 266°
2026-04-23 10:26 23.13640 73.90624 35819 ft 470 kts 266°
2026-04-23 10:27 23.13292 73.83522 35814 ft 471 kts 266°
2026-04-23 10:27 23.12940 73.76403 35802 ft 472 kts 266°
2026-04-23 10:28 23.12585 73.69283 35801 ft 473 kts 266°
2026-04-23 10:28 23.12229 73.62186 35805 ft 473 kts 266°
2026-04-23 10:29 23.11864 73.54997 35792 ft 474 kts 266°
2026-04-23 10:29 23.11497 73.47851 35790 ft 474 kts 266°
2026-04-23 10:30 23.11128 73.40706 35789 ft 474 kts 266°
2026-04-23 10:30 23.10759 73.33622 35777 ft 473 kts 266°
2026-04-23 10:31 23.10384 73.26490 35785 ft 472 kts 266°
2026-04-23 10:31 23.10007 73.19377 35773 ft 472 kts 266°
2026-04-23 10:32 23.09627 73.12266 35779 ft 471 kts 266°
2026-04-23 10:32 23.09244 73.05162 35769 ft 471 kts 266°
2026-04-23 10:33 23.08858 72.98069 35767 ft 470 kts 266°
2026-04-23 10:33 23.08470 72.90991 35765 ft 470 kts 266°
2026-04-23 10:34 23.08079 72.83905 35757 ft 469 kts 266°
2026-04-23 10:34 23.07685 72.76832 35747 ft 470 kts 266°
2026-04-23 10:35 23.07287 72.69748 35751 ft 470 kts 266°
2026-04-23 10:35 23.06866 72.62673 35745 ft 470 kts 264°
2026-04-23 10:36 23.05957 72.55686 35745 ft 470 kts 261°
2026-04-23 10:36 23.04928 72.48628 35750 ft 470 kts 261°
2026-04-23 10:37 23.03924 72.41662 35750 ft 471 kts 261°
2026-04-23 10:37 23.02928 72.34639 35762 ft 471 kts 261°
2026-04-23 10:38 23.01933 72.27601 35768 ft 471 kts 261°
2026-04-23 10:38 23.00936 72.20573 35769 ft 471 kts 261°
2026-04-23 10:39 22.99936 72.13543 35771 ft 471 kts 261°
2026-04-23 10:39 22.98934 72.06526 35772 ft 471 kts 261°
2026-04-23 10:40 22.97926 71.99501 35774 ft 470 kts 261°
2026-04-23 10:40 22.96918 71.92495 35779 ft 470 kts 261°
2026-04-23 10:41 22.95913 71.85530 35776 ft 470 kts 261°
2026-04-23 10:41 22.94892 71.78468 35781 ft 470 kts 261°
2026-04-23 10:42 22.93875 71.71467 35778 ft 470 kts 261°
2026-04-23 10:42 22.92865 71.64535 35778 ft 469 kts 261°
2026-04-23 10:43 22.91835 71.57483 35788 ft 469 kts 261°
2026-04-23 10:43 22.90816 71.50534 35788 ft 470 kts 262°
2026-04-23 10:44 22.89786 71.43523 35777 ft 471 kts 262°
2026-04-23 10:44 22.88750 71.36503 35787 ft 472 kts 261°
2026-04-23 10:45 22.87711 71.29478 35792 ft 472 kts 261°
2026-04-23 10:45 22.86669 71.22455 35787 ft 472 kts 261°
2026-04-23 10:46 22.85622 71.15423 35797 ft 472 kts 261°
2026-04-23 10:46 22.84573 71.08398 35796 ft 472 kts 261°
2026-04-23 10:47 22.83522 71.01382 35803 ft 472 kts 261°
2026-04-23 10:47 22.82469 70.94365 35804 ft 471 kts 261°
2026-04-23 10:48 22.81414 70.87361 35794 ft 470 kts 262°
2026-04-23 10:48 22.80934 70.80323 35803 ft 469 kts 272°
2026-04-23 10:49 22.81373 70.73267 35810 ft 468 kts 274°
2026-04-23 10:49 22.81870 70.66232 35813 ft 468 kts 274°
2026-04-23 10:50 22.82337 70.59196 35814 ft 468 kts 274°
2026-04-23 10:50 22.82783 70.52150 35808 ft 468 kts 274°
2026-04-23 10:51 22.83220 70.45105 35811 ft 468 kts 274°
2026-04-23 10:51 22.83655 70.38068 35809 ft 468 kts 274°
2026-04-23 10:52 22.84085 70.31074 35806 ft 469 kts 274°
2026-04-23 10:52 22.84515 70.24029 35807 ft 468 kts 274°
2026-04-23 10:53 22.84943 70.16980 35805 ft 468 kts 274°
2026-04-23 10:53 22.85367 70.09936 35803 ft 468 kts 274°
2026-04-23 10:54 22.85787 70.02901 35804 ft 468 kts 274°
2026-04-23 10:54 22.86205 69.95863 35802 ft 467 kts 274°
2026-04-23 10:55 22.86618 69.88845 35807 ft 467 kts 274°
2026-04-23 10:55 22.87028 69.81824 35803 ft 466 kts 274°
2026-04-23 10:56 22.87435 69.74815 35802 ft 465 kts 273°
2026-04-23 10:56 22.87842 69.67832 35800 ft 464 kts 274°
2026-04-23 10:57 22.88294 69.60844 35804 ft 463 kts 274°
2026-04-23 10:57 22.88754 69.53878 35803 ft 463 kts 274°
2026-04-23 10:58 22.89204 69.46922 35808 ft 463 kts 274°
2026-04-23 10:58 22.89650 69.39936 35806 ft 465 kts 274°
2026-04-23 10:59 22.90093 69.32915 35806 ft 467 kts 274°
2026-04-23 10:59 22.90535 69.25882 35809 ft 468 kts 274°
2026-04-23 11:00 22.90974 69.18828 35809 ft 469 kts 274°
2026-04-23 11:00 22.91411 69.11768 35809 ft 470 kts 274°
2026-04-23 11:01 22.91843 69.04750 35807 ft 469 kts 274°
2026-04-23 11:01 22.92276 68.97647 35804 ft 468 kts 274°
2026-04-23 11:02 22.92699 68.90660 35808 ft 467 kts 274°
2026-04-23 11:02 22.93120 68.83649 35811 ft 466 kts 274°
2026-04-23 11:03 22.93540 68.76624 35810 ft 466 kts 274°
2026-04-23 11:03 22.93955 68.69612 35813 ft 466 kts 274°
2026-04-23 11:04 22.94368 68.62579 35814 ft 467 kts 274°
2026-04-23 11:04 22.94779 68.55534 35816 ft 468 kts 274°
2026-04-23 11:05 22.95188 68.48483 35815 ft 469 kts 274°
2026-04-23 11:05 22.95525 68.42617 35812 ft 469 kts 274°
2026-04-23 11:06 22.95867 68.32004 35821 ft 470 kts 270°
2026-04-23 11:07 22.95840 68.24903 35814 ft 471 kts 270°
2026-04-23 11:07 22.95819 68.17802 35817 ft 471 kts 270°
2026-04-23 11:08 22.95817 68.10700 35815 ft 470 kts 270°
2026-04-23 11:08 22.95816 68.03608 35817 ft 470 kts 270°
2026-04-23 11:09 22.95812 67.96526 35815 ft 469 kts 270°
2026-04-23 11:09 22.95804 67.89452 35819 ft 469 kts 270°
2026-04-23 11:10 22.95803 67.82363 35818 ft 469 kts 271°
2026-04-23 11:10 22.95823 67.75279 35822 ft 469 kts 271°
2026-04-23 11:11 22.95841 67.68253 35822 ft 469 kts 271°
2026-04-23 11:11 22.95852 67.61173 35822 ft 469 kts 271°
2026-04-23 11:12 22.95859 67.54092 35821 ft 470 kts 271°
2026-04-23 11:12 22.95863 67.47010 35819 ft 470 kts 271°
2026-04-23 11:13 22.95864 67.39928 35820 ft 470 kts 271°
2026-04-23 11:13 22.95861 67.32827 35822 ft 470 kts 271°
2026-04-23 11:14 22.95856 67.25745 35823 ft 470 kts 271°
2026-04-23 11:14 22.95847 67.18657 35822 ft 470 kts 271°
2026-04-23 11:15 22.95836 67.11575 35823 ft 469 kts 271°
2026-04-23 11:15 22.95821 67.04500 35824 ft 469 kts 271°
2026-04-23 11:16 22.95803 66.97428 35825 ft 469 kts 271°
2026-04-23 11:16 22.95816 66.90360 35823 ft 468 kts 272°
2026-04-23 11:17 22.95868 66.83293 35821 ft 468 kts 272°
2026-04-23 11:17 22.95918 66.76243 35825 ft 468 kts 272°
2026-04-23 11:18 22.95957 66.69187 35824 ft 467 kts 272°
2026-04-23 11:18 22.95991 66.62134 35824 ft 467 kts 272°
2026-04-23 11:19 22.96021 66.55086 35825 ft 467 kts 272°
2026-04-23 11:19 22.96048 66.48038 35821 ft 467 kts 272°
2026-04-23 11:20 22.96072 66.40984 35825 ft 467 kts 272°
2026-04-23 11:20 22.96093 66.33921 35822 ft 468 kts 272°
2026-04-23 11:21 22.96111 66.26869 35826 ft 468 kts 272°
2026-04-23 11:21 22.96126 66.19854 35827 ft 468 kts 272°
2026-04-23 11:22 22.96138 66.12788 35825 ft 468 kts 272°
2026-04-23 11:22 22.96147 66.05720 35825 ft 469 kts 272°
2026-04-23 11:23 22.96152 65.98647 35823 ft 469 kts 272°
2026-04-23 11:23 22.96154 65.91577 35824 ft 469 kts 272°
2026-04-23 11:24 22.96153 65.84494 35824 ft 469 kts 273°
2026-04-23 11:24 22.96149 65.77420 35823 ft 469 kts 273°
2026-04-23 11:25 22.96142 65.70343 35827 ft 469 kts 273°
2026-04-23 11:25 22.96132 65.63264 35832 ft 469 kts 273°
2026-04-23 11:26 22.96119 65.56185 35826 ft 469 kts 273°
2026-04-23 11:26 22.96102 65.49119 35832 ft 469 kts 273°
2026-04-23 11:27 22.96083 65.42033 35827 ft 469 kts 273°
2026-04-23 11:27 22.96060 65.34957 35830 ft 469 kts 273°
2026-04-23 11:28 22.96034 65.27882 35823 ft 469 kts 273°
2026-04-23 11:28 22.96005 65.20820 35825 ft 468 kts 273°
2026-04-23 11:29 22.95973 65.13760 35819 ft 468 kts 273°
2026-04-23 11:29 22.95938 65.06706 35827 ft 467 kts 273°
2026-04-23 11:30 22.95900 64.99655 35820 ft 467 kts 273°
2026-04-23 11:30 22.95859 64.92620 35822 ft 466 kts 273°
2026-04-23 11:31 22.95815 64.85586 35820 ft 466 kts 273°
2026-04-23 11:31 22.96220 64.78626 35827 ft 461 kts 280°
2026-04-23 11:32 22.96988 64.71718 35825 ft 461 kts 280°
2026-04-23 11:32 22.97752 64.64810 35822 ft 461 kts 280°
2026-04-23 11:33 22.98488 64.57907 35820 ft 460 kts 280°
2026-04-23 11:33 22.99211 64.51009 35824 ft 460 kts 280°
2026-04-23 11:34 22.99929 64.44111 35818 ft 460 kts 280°
2026-04-23 11:34 23.00639 64.37269 35819 ft 459 kts 280°
2026-04-23 11:35 23.01351 64.30384 35818 ft 459 kts 280°
2026-04-23 11:35 23.02060 64.23501 35817 ft 459 kts 280°
2026-04-23 11:36 23.02766 64.16626 35821 ft 458 kts 280°
2026-04-23 11:36 23.03467 64.09757 35819 ft 458 kts 280°
2026-04-23 11:37 23.04166 64.02882 35823 ft 458 kts 279°
2026-04-23 11:37 23.04862 63.96011 35820 ft 458 kts 279°
2026-04-23 11:38 23.05553 63.89158 35821 ft 457 kts 279°
2026-04-23 11:38 23.06254 63.82287 35817 ft 457 kts 279°
2026-04-23 11:39 23.06974 63.75429 35820 ft 457 kts 279°
2026-04-23 11:39 23.07694 63.68566 35818 ft 457 kts 279°
2026-04-23 11:40 23.08408 63.61704 35818 ft 458 kts 279°
2026-04-23 11:40 23.09119 63.54834 35817 ft 458 kts 279°
2026-04-23 11:41 23.09827 63.47953 35816 ft 458 kts 279°
2026-04-23 11:41 23.10530 63.41080 35814 ft 459 kts 279°
2026-04-23 11:42 23.11234 63.34183 35816 ft 459 kts 279°
2026-04-23 11:42 23.11934 63.27287 35821 ft 459 kts 279°
2026-04-23 11:43 23.12631 63.20397 35816 ft 459 kts 279°
2026-04-23 11:43 23.13321 63.13537 35818 ft 460 kts 279°
2026-04-23 11:44 23.14013 63.06631 35830 ft 460 kts 279°
2026-04-23 11:44 23.14701 62.99734 35816 ft 459 kts 279°
2026-04-23 11:45 23.15387 62.92835 35813 ft 459 kts 279°
2026-04-23 11:45 23.16065 62.85968 35819 ft 457 kts 279°
2026-04-23 11:46 23.16744 62.79083 35821 ft 459 kts 278°
2026-04-23 11:46 23.17419 62.72192 35820 ft 459 kts 279°
2026-04-23 11:47 23.18093 62.65280 35824 ft 459 kts 279°
2026-04-23 11:47 23.18762 62.58386 35812 ft 458 kts 279°
2026-04-23 11:48 23.19426 62.51521 35813 ft 457 kts 279°
2026-04-23 11:48 23.20085 62.44666 35810 ft 455 kts 279°
2026-04-23 11:49 23.20740 62.37829 35808 ft 454 kts 279°
2026-04-23 11:49 23.21389 62.31016 35813 ft 453 kts 279°
2026-04-23 11:50 23.22036 62.24205 35823 ft 452 kts 279°
2026-04-23 11:50 23.22677 62.17414 35811 ft 452 kts 279°
2026-04-23 11:51 23.23315 62.10628 35808 ft 451 kts 279°
2026-04-23 11:51 23.23950 62.03842 35808 ft 451 kts 279°
2026-04-23 11:52 23.24476 61.98198 35818 ft 451 kts 279°
2026-04-23 11:52 23.25212 61.90266 35817 ft 451 kts 279°
2026-04-23 11:53 23.25732 61.84631 35819 ft 451 kts 279°
2026-04-23 11:53 23.26355 61.77851 35806 ft 451 kts 279°
2026-04-23 11:54 23.26975 61.71076 35804 ft 450 kts 279°
2026-04-23 11:54 23.27592 61.64295 35806 ft 450 kts 278°
2026-04-23 11:55 23.28204 61.57534 35811 ft 449 kts 278°
2026-04-23 11:55 23.28814 61.50770 35821 ft 449 kts 278°
2026-04-23 11:56 23.29420 61.44012 35803 ft 448 kts 278°
2026-04-23 11:56 23.30023 61.37267 35803 ft 448 kts 278°
2026-04-23 11:57 23.30621 61.30531 35803 ft 447 kts 278°
2026-04-23 11:57 23.31217 61.23792 35800 ft 447 kts 278°
2026-04-23 11:58 23.31812 61.17108 35808 ft 446 kts 279°
2026-04-23 11:58 23.32624 61.10433 35812 ft 445 kts 281°
2026-04-23 11:59 23.33510 61.03780 35802 ft 444 kts 280°
2026-04-23 11:59 23.34365 60.97132 35798 ft 444 kts 280°
2026-04-23 12:00 23.34818 60.93527 35812 ft 443 kts 280°
2026-04-23 12:00 23.35547 60.87669 35800 ft 443 kts 280°
2026-04-23 12:01 23.36370 60.81038 35798 ft 442 kts 280°
2026-04-23 12:01 23.37191 60.74410 35796 ft 442 kts 280°
2026-04-23 12:02 23.38028 60.67791 35796 ft 440 kts 282°
2026-04-23 12:02 23.39549 60.61368 35796 ft 437 kts 291°
2026-04-23 12:03 23.41767 60.55263 35792 ft 437 kts 293°
2026-04-23 12:03 23.44045 60.49130 35805 ft 437 kts 293°
2026-04-23 12:04 23.46304 60.42996 35790 ft 437 kts 292°
2026-04-23 12:04 23.48549 60.36852 35796 ft 437 kts 292°
2026-04-23 12:05 23.50791 60.30698 35793 ft 437 kts 292°
2026-04-23 12:05 23.53029 60.24544 35792 ft 437 kts 292°
2026-04-23 12:06 23.55268 60.18379 35793 ft 437 kts 292°
2026-04-23 12:06 23.58620 60.09134 35809 ft 439 kts 292°
2026-04-23 12:07 23.59742 60.06034 35999 ft 440 kts 292°
2026-04-23 12:07 23.60864 60.02934 36386 ft 438 kts 292°
2026-04-23 12:07 23.61976 59.99857 36828 ft 434 kts 292°
2026-04-23 12:07 23.63078 59.96805 37250 ft 431 kts 292°
2026-04-23 12:08 23.64175 59.93768 37585 ft 430 kts 292°
2026-04-23 12:08 23.65271 59.90731 37724 ft 433 kts 292°
2026-04-23 12:08 23.67483 59.84595 37787 ft 434 kts 292°
2026-04-23 12:09 23.69674 59.78504 37782 ft 428 kts 292°
2026-04-23 12:09 23.71839 59.72481 37795 ft 425 kts 292°
2026-04-23 12:10 23.73989 59.66490 37792 ft 423 kts 292°
2026-04-23 12:10 23.76133 59.60507 37784 ft 423 kts 292°
2026-04-23 12:11 23.78276 59.54518 37789 ft 424 kts 292°
2026-04-23 12:11 23.80420 59.48517 37787 ft 425 kts 292°
2026-04-23 12:12 23.82570 59.42493 37799 ft 426 kts 292°
2026-04-23 12:12 23.84720 59.36458 37790 ft 427 kts 291°
2026-04-23 12:13 23.86857 59.30451 37788 ft 428 kts 291°
2026-04-23 12:13 23.89010 59.24392 37788 ft 428 kts 291°
2026-04-23 12:14 23.91164 59.18322 37794 ft 428 kts 291°
2026-04-23 12:14 23.93385 59.12269 37788 ft 428 kts 295°
2026-04-23 12:15 23.95901 59.06374 37788 ft 428 kts 295°
2026-04-23 12:15 23.98434 59.00525 37787 ft 428 kts 295°
2026-04-23 12:16 24.00962 58.94637 37786 ft 428 kts 295°
2026-04-23 12:16 24.03476 58.88748 37795 ft 428 kts 295°
2026-04-23 12:17 24.05992 58.82845 37788 ft 427 kts 295°
2026-04-23 12:17 24.08500 58.76952 37791 ft 427 kts 295°
2026-04-23 12:18 24.11005 58.71060 37803 ft 427 kts 295°
2026-04-23 12:18 24.13505 58.65173 37800 ft 427 kts 295°
2026-04-23 12:19 24.16006 58.59275 37795 ft 427 kts 295°
2026-04-23 12:19 24.18501 58.53381 37796 ft 426 kts 295°
2026-04-23 12:20 24.20991 58.47493 37792 ft 426 kts 295°
2026-04-23 12:20 24.23463 58.41638 37790 ft 426 kts 295°
2026-04-23 12:21 24.25947 58.35749 37791 ft 426 kts 295°
2026-04-23 12:21 24.28427 58.29859 37795 ft 426 kts 295°
2026-04-23 12:22 24.30904 58.23971 37794 ft 425 kts 295°
2026-04-23 12:22 24.33379 58.18079 37796 ft 425 kts 295°
2026-04-23 12:23 24.35852 58.12183 37796 ft 425 kts 295°
2026-04-23 12:23 24.38323 58.06285 37787 ft 425 kts 294°
2026-04-23 12:24 24.40791 58.00386 37786 ft 425 kts 294°
2026-04-23 12:24 24.43254 57.94490 37793 ft 425 kts 294°
2026-04-23 12:25 24.45720 57.88580 37791 ft 425 kts 294°
2026-04-23 12:25 24.48181 57.82673 37787 ft 426 kts 294°
2026-04-23 12:26 24.50628 57.76756 37787 ft 426 kts 293°
2026-04-23 12:26 24.52921 57.70761 37790 ft 426 kts 292°
2026-04-23 12:27 24.55179 57.64743 38972 ft 426 kts 292°
2026-04-23 12:27 24.56329 57.61695 37561 ft 436 kts 292°
2026-04-23 12:27 24.57487 57.58638 37686 ft 433 kts 292°
2026-04-23 12:28 24.59779 57.52596 37770 ft 424 kts 292°
2026-04-23 12:28 24.62039 57.46634 37781 ft 423 kts 292°
2026-04-23 12:29 24.64305 57.40648 37786 ft 424 kts 292°
2026-04-23 12:29 24.66566 57.34664 37787 ft 425 kts 292°
2026-04-23 12:30 24.68814 57.28699 37788 ft 425 kts 292°
2026-04-23 12:30 24.71075 57.22681 37792 ft 426 kts 292°
2026-04-23 12:31 24.73327 57.16681 37791 ft 427 kts 292°
2026-04-23 12:31 24.75587 57.10649 37788 ft 427 kts 292°
2026-04-23 12:32 24.77849 57.04607 37790 ft 427 kts 292°
2026-04-23 12:32 24.80109 56.98559 37789 ft 427 kts 292°
2026-04-23 12:33 24.82364 56.92516 37788 ft 427 kts 292°
2026-04-23 12:33 24.84615 56.86476 37786 ft 426 kts 292°
2026-04-23 12:34 24.86863 56.80434 37785 ft 426 kts 292°
2026-04-23 12:34 24.89106 56.74397 37788 ft 426 kts 291°
2026-04-23 12:35 24.91344 56.68363 37790 ft 426 kts 291°
2026-04-23 12:35 24.93581 56.62325 37787 ft 426 kts 291°
2026-04-23 12:36 24.95700 56.56237 37794 ft 425 kts 287°
2026-04-23 12:36 24.97028 56.49891 37789 ft 426 kts 279°
2026-04-23 12:37 24.97803 56.43425 37799 ft 426 kts 278°
2026-04-23 12:37 24.98555 56.36951 37794 ft 426 kts 278°
2026-04-23 12:38 24.99317 56.30478 37796 ft 425 kts 278°
2026-04-23 12:38 25.00073 56.24116 37789 ft 424 kts 278°
2026-04-23 12:39 25.00836 56.17701 37799 ft 425 kts 278°
2026-04-23 12:39 25.01602 56.11236 37799 ft 426 kts 278°
2026-04-23 12:40 25.02366 56.04759 37784 ft 426 kts 278°
2026-04-23 12:40 25.03128 55.98287 37786 ft 425 kts 278°
2026-04-23 12:41 25.03884 55.91829 37786 ft 424 kts 278°
2026-04-23 12:41 25.04514 55.86431 37781 ft 423 kts 278°
2026-04-23 12:42 25.05262 55.79999 37781 ft 422 kts 278°
2026-04-23 12:42 25.05992 55.73697 37784 ft 422 kts 278°
2026-04-23 12:43 25.06731 55.67291 37783 ft 421 kts 278°
2026-04-23 12:43 25.07468 55.60887 37784 ft 420 kts 278°
2026-04-23 12:44 25.08200 55.54491 37787 ft 420 kts 278°
2026-04-23 12:44 25.08929 55.48106 37788 ft 420 kts 278°
2026-04-23 12:45 25.09652 55.41745 37788 ft 421 kts 278°
2026-04-23 12:45 25.10378 55.35331 37784 ft 421 kts 278°
2026-04-23 12:46 25.11100 55.28928 37785 ft 421 kts 278°
2026-04-23 12:46 25.11820 55.22520 37792 ft 421 kts 278°
2026-04-23 12:47 25.12468 55.16728 37792 ft 421 kts 278°
2026-04-23 12:47 25.13183 55.10311 37788 ft 421 kts 278°
2026-04-23 12:48 25.13895 55.03900 37789 ft 421 kts 278°
2026-04-23 12:48 25.14605 54.97481 37788 ft 421 kts 277°
2026-04-23 12:49 25.15383 54.91085 37789 ft 421 kts 279°
2026-04-23 12:49 25.16366 54.84719 37790 ft 420 kts 280°
2026-04-23 12:50 25.17348 54.78356 37797 ft 420 kts 279°
2026-04-23 12:50 25.18300 54.71996 37800 ft 420 kts 279°
2026-04-23 12:51 25.19241 54.65628 37800 ft 420 kts 279°
2026-04-23 12:51 25.20179 54.59268 37800 ft 420 kts 279°
2026-04-23 12:52 25.21153 54.52912 37809 ft 420 kts 282°
2026-04-23 12:52 25.22663 54.46687 37817 ft 420 kts 285°
2026-04-23 12:53 25.24247 54.40479 37814 ft 420 kts 285°
2026-04-23 12:53 25.25810 54.34264 37804 ft 420 kts 285°
2026-04-23 12:54 25.27362 54.28052 37810 ft 419 kts 285°
2026-04-23 12:54 25.28907 54.21839 37812 ft 419 kts 284°
2026-04-23 12:55 25.30450 54.15623 37815 ft 419 kts 284°
2026-04-23 12:55 25.31904 54.09443 37817 ft 419 kts 283°
2026-04-23 12:56 25.33210 54.03164 37823 ft 419 kts 282°
2026-04-23 12:56 25.34520 53.96898 37824 ft 419 kts 283°
2026-04-23 12:57 25.35849 53.90630 37822 ft 418 kts 283°
2026-04-23 12:57 25.37175 53.84375 37820 ft 418 kts 282°
2026-04-23 12:58 25.38482 53.78126 37823 ft 417 kts 282°
2026-04-23 12:58 25.39776 53.71905 37831 ft 417 kts 282°
2026-04-23 12:59 25.41083 53.65614 37831 ft 417 kts 282°
2026-04-23 12:59 25.42372 53.59408 37825 ft 417 kts 282°
2026-04-23 13:00 25.43670 53.53165 37834 ft 416 kts 282°
2026-04-23 13:00 25.44972 53.46923 37835 ft 416 kts 282°
2026-04-23 13:01 25.46262 53.40717 37839 ft 416 kts 282°
2026-04-23 13:01 25.47556 53.34477 37841 ft 416 kts 282°
2026-04-23 13:02 25.48847 53.28238 37845 ft 416 kts 282°
2026-04-23 13:02 25.50135 53.21995 37845 ft 416 kts 282°
2026-04-23 13:03 25.51418 53.15755 37850 ft 416 kts 282°
2026-04-23 13:03 25.52698 53.09519 37853 ft 415 kts 282°
2026-04-23 13:04 25.53974 53.03281 37857 ft 415 kts 282°
2026-04-23 13:04 25.55249 52.97045 37859 ft 415 kts 282°
2026-04-23 13:05 25.56881 52.90913 37869 ft 416 kts 289°
2026-04-23 13:05 25.59263 52.85115 37868 ft 417 kts 295°
2026-04-23 13:06 25.63451 52.76606 37872 ft 418 kts 296°
2026-04-23 13:07 25.66223 52.70949 37871 ft 418 kts 296°
2026-04-23 13:07 25.68983 52.65277 37874 ft 418 kts 295°
2026-04-23 13:08 25.71734 52.59606 37869 ft 418 kts 295°
2026-04-23 13:08 25.74484 52.53934 37876 ft 417 kts 295°
2026-04-23 13:09 25.77218 52.48250 37872 ft 417 kts 295°
2026-04-23 13:09 25.79887 52.42539 37874 ft 417 kts 295°
2026-04-23 13:10 25.82544 52.36845 37876 ft 418 kts 295°
2026-04-23 13:10 25.85225 52.31121 37878 ft 419 kts 296°
2026-04-23 13:11 25.88425 52.25685 37885 ft 421 kts 303°
2026-04-23 13:11 25.92231 52.20827 37451 ft 414 kts 308°
2026-04-23 13:11 25.94190 52.18491 36893 ft 412 kts 308°
2026-04-23 13:12 25.96140 52.16163 36217 ft 412 kts 308°
2026-04-23 13:12 25.98096 52.13814 35492 ft 415 kts 308°
2026-04-23 13:12 26.00052 52.11452 34884 ft 416 kts 308°
2026-04-23 13:12 26.02023 52.09065 34301 ft 424 kts 309°
2026-04-23 13:13 26.04042 52.06618 33690 ft 433 kts 309°
2026-04-23 13:13 26.06086 52.04140 33047 ft 434 kts 309°
2026-04-23 13:13 26.08124 52.01672 32461 ft 431 kts 309°
2026-04-23 13:13 26.10142 51.99226 31889 ft 428 kts 308°
2026-04-23 13:14 26.12110 51.96837 31335 ft 425 kts 308°
2026-04-23 13:14 26.14101 51.94418 30788 ft 422 kts 308°
2026-04-23 13:14 26.16081 51.92010 30237 ft 420 kts 308°
2026-04-23 13:14 26.18047 51.89618 29618 ft 418 kts 308°
2026-04-23 13:15 26.20002 51.87237 29011 ft 415 kts 308°
2026-04-23 13:15 26.21943 51.84876 28430 ft 411 kts 308°
2026-04-23 13:15 26.23804 51.82488 27862 ft 406 kts 303°
2026-04-23 13:15 26.25431 51.79944 27327 ft 400 kts 299°
2026-04-23 13:16 26.26849 51.77301 26781 ft 395 kts 294°
2026-04-23 13:16 26.28062 51.74578 26251 ft 391 kts 293°
2026-04-23 13:16 26.28850 51.72775 25903 ft 390 kts 292°
2026-04-23 13:16 26.30040 51.70069 25380 ft 388 kts 293°
2026-04-23 13:17 26.31632 51.66481 24678 ft 385 kts 293°
2026-04-23 13:17 26.32421 51.64710 24335 ft 385 kts 293°
2026-04-23 13:17 26.33607 51.62043 23803 ft 383 kts 293°
2026-04-23 13:17 26.34789 51.59385 23241 ft 382 kts 293°
2026-04-23 13:18 26.35968 51.56734 22681 ft 380 kts 293°
2026-04-23 13:18 26.37507 51.53247 21983 ft 376 kts 291°
2026-04-23 13:18 26.38488 51.50567 21469 ft 371 kts 286°
2026-04-23 13:18 26.39338 51.47867 20982 ft 368 kts 286°
2026-04-23 13:19 26.40176 51.45187 20490 ft 365 kts 286°
2026-04-23 13:19 26.41017 51.42520 20001 ft 363 kts 286°
2026-04-23 13:19 26.41858 51.39871 19521 ft 361 kts 286°
2026-04-23 13:19 26.42694 51.37240 19044 ft 359 kts 285°
2026-04-23 13:20 26.43539 51.34624 18547 ft 359 kts 286°
2026-04-23 13:20 26.44396 51.32008 18039 ft 358 kts 286°
2026-04-23 13:20 26.45222 51.29407 17499 ft 349 kts 282°
2026-04-23 13:20 26.45484 51.26761 17023 ft 341 kts 266°
2026-04-23 13:21 26.45146 51.24169 16562 ft 336 kts 253°
2026-04-23 13:21 26.44332 51.21740 16135 ft 332 kts 248°
2026-04-23 13:21 26.43431 51.19371 15682 ft 330 kts 247°
2026-04-23 13:21 26.42528 51.17026 15250 ft 328 kts 247°
2026-04-23 13:22 26.41633 51.14688 14825 ft 327 kts 247°
2026-04-23 13:22 26.40765 51.12400 14380 ft 325 kts 247°
2026-04-23 13:22 26.39887 51.10067 13957 ft 324 kts 247°
2026-04-23 13:22 26.39021 51.07755 13554 ft 322 kts 247°
2026-04-23 13:23 26.38165 51.05465 13116 ft 320 kts 247°
2026-04-23 13:23 26.37311 51.03175 12671 ft 318 kts 247°
2026-04-23 13:23 26.36464 51.00908 12250 ft 316 kts 247°
2026-04-23 13:23 26.35624 50.98657 11838 ft 314 kts 247°
2026-04-23 13:24 26.34787 50.96417 11437 ft 312 kts 247°
2026-04-23 13:24 26.33954 50.94189 11030 ft 311 kts 247°
2026-04-23 13:24 26.33251 50.91941 10524 ft 308 kts 259°
2026-04-23 13:24 26.33350 50.89545 10187 ft 314 kts 280°
2026-04-23 13:25 26.34205 50.87308 10057 ft 314 kts 298°
2026-04-23 13:25 26.35076 50.86028 10023 ft 312 kts 307°
2026-04-23 13:25 26.36687 50.84434 9946 ft 311 kts 324°
2026-04-23 13:25 26.39273 50.83210 9776 ft 292 kts 321°
2026-04-23 13:26 26.40621 50.81633 9545 ft 271 kts 294°
2026-04-23 13:26 26.41537 50.79842 9137 ft 270 kts 295°
2026-04-23 13:26 26.42224 50.78651 8866 ft 272 kts 300°
2026-04-23 13:26 26.43362 50.76965 8535 ft 273 kts 302°
2026-04-23 13:27 26.44904 50.74792 8271 ft 266 kts 303°
2026-04-23 13:27 26.45898 50.73135 8024 ft 251 kts 285°
2026-04-23 13:27 26.46147 50.71864 7702 ft 247 kts 265°
2026-04-23 13:27 26.45753 50.70051 7280 ft 243 kts 239°
2026-04-23 13:28 26.44603 50.68643 6702 ft 251 kts 218°
2026-04-23 13:28 26.43146 50.67506 6258 ft 256 kts 213°
2026-04-23 13:28 26.41644 50.66415 6108 ft 260 kts 211°
2026-04-23 13:28 26.39921 50.65736 6019 ft 271 kts 186°
2026-04-23 13:29 26.38050 50.66031 6003 ft 283 kts 160°
2026-04-23 13:29 26.36400 50.67293 5998 ft 289 kts 135°
2026-04-23 13:29 26.35493 50.69261 5936 ft 291 kts 102°
2026-04-23 13:29 26.35647 50.71537 5896 ft 304 kts 78°
2026-04-23 13:30 26.35915 50.73973 5835 ft 335 kts 99°
2026-04-23 13:30 26.35061 50.76457 5893 ft 367 kts 128°
2026-04-23 13:30 26.33371 50.78572 5938 ft 355 kts 137°
2026-04-23 13:30 26.31681 50.80483 5860 ft 339 kts 135°
2026-04-23 13:31 26.30188 50.82454 5637 ft 324 kts 130°
2026-04-23 13:31 26.28945 50.84405 5347 ft 295 kts 126°
2026-04-23 13:31 26.27871 50.86254 5084 ft 278 kts 124°
2026-04-23 13:31 26.26871 50.88075 4851 ft 273 kts 123°
2026-04-23 13:32 26.25893 50.89854 4679 ft 266 kts 123°
2026-04-23 13:32 26.24931 50.91590 4486 ft 260 kts 123°
2026-04-23 13:32 26.23987 50.93287 4298 ft 255 kts 123°
2026-04-23 13:32 26.23059 50.94951 4114 ft 250 kts 123°
2026-04-23 13:33 26.21995 50.96425 3899 ft 241 kts 145°
2026-04-23 13:33 26.20511 50.97160 3720 ft 231 kts 170°
2026-04-23 13:33 26.18944 50.97476 3551 ft 231 kts 173°
2026-04-23 13:33 26.17333 50.97792 3410 ft 238 kts 173°
2026-04-23 13:34 26.15714 50.97874 3196 ft 229 kts 198°
2026-04-23 13:34 26.14401 50.97088 3069 ft 205 kts 233°
2026-04-23 13:34 26.13797 50.95704 2724 ft 201 kts 270°
2026-04-23 13:34 26.14103 50.94216 2300 ft 200 kts 308°
2026-04-23 13:35 26.15189 50.93399 2063 ft 190 kts 355°
2026-04-23 13:35 26.16433 50.93787 1836 ft 186 kts 32°
2026-04-23 13:35 26.17526 50.94435 2117 ft 183 kts
2026-04-23 13:35 26.18745 50.94203 2366 ft 177 kts 326°
2026-04-23 13:36 26.19499 50.93155 2593 ft 181 kts 289°
2026-04-23 13:36 26.19492 50.91699 2779 ft 193 kts 258°
2026-04-23 13:36 26.19050 50.90269 2896 ft 198 kts 253°
2026-04-23 13:36 26.18554 50.88852 2932 ft 196 kts 252°
2026-04-23 13:37 26.18045 50.87417 3000 ft 202 kts 253°
2026-04-23 13:37 26.17591 50.85928 2994 ft 202 kts 261°
2026-04-23 13:37 26.17289 50.84400 3014 ft 205 kts 262°
2026-04-23 13:37 26.17012 50.82820 3000 ft 208 kts 265°
2026-04-23 13:38 26.17145 50.81316 2994 ft 189 kts 296°
2026-04-23 13:38 26.17728 50.79998 3049 ft 194 kts 297°
2026-04-23 13:38 26.18360 50.78603 2819 ft 208 kts 300°
2026-04-23 13:38 26.19105 50.77213 2559 ft 210 kts 303°
2026-04-23 13:39 26.19888 50.75846 2303 ft 207 kts 304°
2026-04-23 13:39 26.20642 50.74540 2041 ft 194 kts 305°
2026-04-23 13:39 26.21333 50.73340 1793 ft 179 kts 306°
2026-04-23 13:39 26.21989 50.72217 1569 ft 163 kts 307°
2026-04-23 13:40 26.22560 50.71195 1342 ft 149 kts 306°
2026-04-23 13:40 26.23068 50.70233 1028 ft 136 kts 307°
2026-04-23 13:40 26.23531 50.69375 786 ft 128 kts 314°
2026-04-23 13:40 26.24082 50.68525 726 ft 138 kts 311°
2026-04-23 13:41 26.24607 50.67622 657 ft 140 kts 309°
2026-04-23 13:41 26.25127 50.66696 494 ft 142 kts 313°
2026-04-23 13:41 26.25678 50.65775 315 ft 144 kts 312°
2026-04-23 13:41 26.26207 50.64861 89 ft 136 kts 311°
2026-04-23 13:42 26.26693 50.64045 30 ft 113 kts 303°
2026-04-23 13:42 26.27015 50.63478 27 ft 60 kts 302°
2026-04-23 13:42 26.27207 50.63146 29 ft 40 kts 296°
2026-04-23 13:42 26.27244 50.62943 30 ft 22 kts 277°
2026-04-23 13:43 26.27256 50.62824 33 ft 10 kts 276°
2026-04-23 13:43 26.27251 50.62744 34 ft 10 kts 264°
2026-04-23 13:43 26.27235 50.62663 33 ft 11 kts 250°
2026-04-23 13:43 26.27189 50.62630 31 ft 8 kts 184°
2026-04-23 13:44 26.27149 50.62665 31 ft 8 kts 125°
2026-04-23 13:44 26.27118 50.62722 29 ft 10 kts 121°
2026-04-23 13:44 26.27076 50.62798 27 ft 13 kts 123°
2026-04-23 13:44 26.27024 50.62887 30 ft 14 kts 123°
2026-04-23 13:45 26.26982 50.62969 31 ft 9 kts 120°
2026-04-23 13:45 26.26953 50.63023 27 ft 6 kts 120°
2026-04-23 13:45 26.26952 50.63025 27 ft 0 kts 120°
2026-04-23 13:45 26.26947 50.63036 27 ft 3 kts 121°
2026-04-23 13:46 26.26929 50.63065 28 ft 6 kts 123°
2026-04-23 13:46 26.26903 50.63111 25 ft 8 kts 123°
2026-04-23 13:46 26.26871 50.63167 27 ft 9 kts 123°
2026-04-23 13:46 26.26838 50.63224 28 ft 9 kts 121°
2026-04-23 13:47 26.26807 50.63261 28 ft 6 kts 163°
2026-04-23 13:47 26.26766 50.63249 28 ft 6 kts 206°
2026-04-23 13:47 26.26731 50.63226 28 ft 0 kts 212°
2026-04-23 13:47 26.26730 50.63225 28 ft 0 kts 212°